Flag for U.S.A. Weather past 2 weeks in Spartanburg, South Carolina, U.S.A.

Now
82 °F

Sunny.


Feels Like: 83 °F
Forecast: 66 / 85 °F
Wind: No wind

Location: Spartanburg Memorial

Current Time: Aug 31, 2015 at 1:48:39 PM

Latest Report: Aug 31, 2015 at 1:15 PM


Visibility: 10 mi

Pressure: 30.12 "Hg

Humidity: 51%

Dew point: 63 °F

Location of SpartanburgLocation

Historic Weather in Spartanburg — Graph

°F

Spartanburg temperature yesterday

Maximum temperature yesterday: 82 °F (at 2:15 PM)
Minimum temperature yesterday: 68 °F (at 7:15 PM)
Average temperature yesterday: 73 °F

Past Weeks' High & Low Weather Summary

 TemperatureHumidityPressure
High91 °F (Aug 16, 3:55 PM)100% (Aug 24, 2:15 AM)30.25 "Hg (Aug 24, 2:15 AM)
Low63 °F (Aug 29, 4:55 AM)29% (Aug 28, 6:15 PM)29.86 "Hg (Aug 25, 5:35 PM)
Average77 °F69%30.05 "Hg
* Reported Aug 16 12:15 PM — Aug 31 12:35 PM, Spartanburg, Weather by CustomWeather, © 2015

Note: Actual official high and low records may vary slightly from our data, if they occured in-between our weather recording intervals... More about our weather records

Advertising

Spartanburg weather history for previous 24 hours

 ConditionsComfort  
Time TempWeatherWind HumidityBarometerVisibility
12:35 PM
Mon, Aug 31
81 °FScattered clouds.3 mph54%30.13 "Hg7 mi
12:15 PM79 °FSunny.3 mph58%30.13 "Hg7 mi
11:35 AM79 °FSunny.5 mph58%30.15 "Hg7 mi
11:15 AM77 °FSunny.5 mph61%30.15 "Hg10 mi
10:55 AM77 °FSunny.No wind61%30.15 "Hg7 mi
10:35 AM75 °FSunny.No wind65%30.15 "Hg10 mi
10:15 AM73 °FSunny.No wind74%30.14 "Hg10 mi
9:55 AM72 °FSunny.5 mph78%30.13 "Hg10 mi
9:35 AM72 °FSunny.6 mph78%30.13 "Hg10 mi
9:15 AM70 °FSunny.5 mph83%30.13 "Hg10 mi
8:55 AM70 °FSunny.3 mph83%30.12 "Hg10 mi
8:35 AM68 °FSunny.No wind88%30.12 "Hg10 mi
8:15 AM68 °FSunny.No wind88%30.12 "Hg10 mi
7:55 AM66 °FClear.No wind94%30.12 "Hg7 mi
7:35 AM64 °FClear.No wind94%30.11 "Hg7 mi
7:15 AM64 °FFog.No wind94%30.10 "Hg5 mi
6:35 AM66 °FClear.No wind88%30.11 "Hg7 mi
6:15 AM66 °FPassing clouds.No wind94%30.10 "Hg10 mi
5:35 AM68 °FOvercast.No wind88%30.11 "Hg10 mi
5:15 AM68 °FOvercast.No wind88%30.10 "Hg10 mi
4:55 AM68 °FOvercast.No wind88%30.11 "Hg10 mi
4:35 AM68 °FOvercast.No wind88%30.10 "Hg10 mi
4:15 AM68 °FOvercast.No wind88%30.11 "Hg10 mi
3:55 AM68 °FOvercast.3 mph88%30.11 "Hg10 mi
3:35 AM68 °FOvercast.No wind88%30.11 "Hg10 mi
3:15 AM68 °FOvercast.No wind88%30.11 "Hg10 mi
2:55 AM68 °FOvercast.No wind88%30.11 "Hg10 mi
2:35 AM68 °FOvercast.No wind88%30.12 "Hg10 mi
2:15 AM68 °FOvercast.No wind88%30.12 "Hg10 mi
1:35 AM66 °FPassing clouds.No wind94%30.13 "Hg10 mi
1:15 AM68 °FPassing clouds.No wind88%30.13 "Hg10 mi
12:55 AM68 °FMostly cloudy.No wind88%30.14 "Hg10 mi
12:35 AM68 °FOvercast.No wind88%30.14 "Hg10 mi
12:15 AM68 °FLight rain. Mostly cloudy.No wind88%30.14 "Hg10 mi
11:35 PM
Sun, Aug 30
68 °FLight rain. Partly cloudy.7 mph88%30.13 "Hg10 mi
11:15 PM68 °FPassing clouds.6 mph88%30.13 "Hg10 mi
10:35 PM68 °FPassing clouds.3 mph88%30.14 "Hg10 mi
10:15 PM68 °FLight rain. Partly cloudy.No wind88%30.15 "Hg10 mi
9:55 PM68 °FLight rain. Overcast.No wind88%30.15 "Hg10 mi
9:35 PM68 °FRain. Overcast.No wind88%30.15 "Hg7 mi
9:15 PM68 °FLight rain. Passing clouds.3 mph88%30.14 "Hg10 mi
8:55 PM68 °FScattered clouds.5 mph88%30.15 "Hg10 mi
8:35 PM68 °FDrizzle. Broken clouds.3 mph88%30.13 "Hg7 mi
8:15 PM68 °FLight rain. More clouds than sun.No wind88%30.13 "Hg7 mi
7:35 PM68 °FRain. More clouds than sun.3 mph88%30.14 "Hg5 mi
7:15 PM68 °FRain. Cloudy.No wind88%30.15 "Hg5 mi
6:55 PM70 °FRain. Cloudy.No wind83%30.16 "Hg4 mi
6:35 PM72 °FLight rain. More clouds than sun.No wind78%30.15 "Hg10 mi
6:15 PM72 °FRain. Overcast.No wind73%30.15 "Hg5 mi
5:35 PM79 °FOvercast.No wind45%30.13 "Hg10 mi
5:15 PM81 °FBroken clouds.3 mph42%30.13 "Hg10 mi
4:55 PM81 °FScattered clouds.6 mph45%30.12 "Hg10 mi
4:35 PM81 °FPartly sunny.5 mph42%30.12 "Hg10 mi
4:15 PM81 °FScattered clouds.9 mph45%30.12 "Hg10 mi
3:35 PM82 °FSunny.7 mph45%30.13 "Hg10 mi
3:15 PM82 °FSunny.5 mph42%30.14 "Hg10 mi
2:55 PM82 °FSunny.6 mph40%30.15 "Hg10 mi
2:35 PM82 °FSunny.6 mph42%30.16 "Hg10 mi
2:15 PM82 °FSunny.7 mph48%30.16 "Hg10 mi
1:55 PM79 °FSunny.6 mph51%30.17 "Hg10 mi
1:35 PM79 °FScattered clouds.5 mph54%30.17 "Hg10 mi
1:15 PM77 °FScattered clouds.No wind61%30.17 "Hg10 mi
Weather by CustomWeather, © 2015

See weather overviewHow to use our weather pages